Time,TemperatureF,DewpointF,PressureIn,WindDirection,WindDirectionDegrees,WindSpeedMPH,WindSpeedGustMPH,Humidity,HourlyPrecipIn,Conditions,Clouds,dailyrainin,SoftwareType,DateUTC
2013-05-30 00:02:00,73.2,68.4,29.85,East,94,6.0,7.0,85,0.00,,,0.00,Wunderground v.1.15,2013-05-30 05:02:00,
2013-05-30 00:06:00,73.1,68.3,29.85,SE,131,5.0,7.0,85,0.00,,,0.00,Wunderground v.1.15,2013-05-30 05:06:00,
2013-05-30 00:10:00,72.9,68.1,29.85,ESE,120,4.0,7.0,85,0.00,,,0.00,Wunderground v.1.15,2013-05-30 05:10:00,
2013-05-30 00:12:00,72.9,68.1,29.85,SE,127,4.0,7.0,85,0.00,,,0.00,Wunderground v.1.15,2013-05-30 05:12:00,
2013-05-30 00:14:00,72.9,68.1,29.85,SE,134,4.0,7.0,85,0.00,,,0.00,Wunderground v.1.15,2013-05-30 05:14:00,
2013-05-30 00:19:00,72.7,67.9,29.85,East,94,4.0,7.0,85,0.00,,,0.00,Wunderground v.1.15,2013-05-30 05:19:00,
2013-05-30 00:20:00,72.7,67.9,29.85,SE,144,4.0,7.0,85,0.00,,,0.00,Wunderground v.1.15,2013-05-30 05:20:00,
2013-05-30 00:22:00,72.7,67.9,29.85,SE,124,4.0,7.0,85,0.00,,,0.00,Wunderground v.1.15,2013-05-30 05:22:00,
2013-05-30 00:26:00,72.7,67.9,29.85,ESE,120,4.0,7.0,85,0.00,,,0.00,Wunderground v.1.15,2013-05-30 05:26:00,
2013-05-30 00:29:00,72.7,67.9,29.85,SE,132,4.0,7.0,85,0.00,,,0.00,Wunderground v.1.15,2013-05-30 05:29:00,
2013-05-30 00:30:00,72.7,67.9,29.85,SE,134,4.0,7.0,85,0.00,,,0.00,Wunderground v.1.15,2013-05-30 05:30:00,
2013-05-30 00:32:00,72.7,67.9,29.85,SE,128,4.0,7.0,85,0.00,,,0.00,Wunderground v.1.15,2013-05-30 05:32:00,
2013-05-30 00:36:00,72.8,68.0,29.85,ESE,102,4.0,7.0,85,0.00,,,0.00,Wunderground v.1.15,2013-05-30 05:36:00,
2013-05-30 00:38:00,72.9,68.1,29.85,ESE,105,5.0,7.0,85,0.00,,,0.00,Wunderground v.1.15,2013-05-30 05:38:00,
2013-05-30 00:42:00,72.8,68.0,29.84,SE,146,5.0,7.0,85,0.00,,,0.00,Wunderground v.1.15,2013-05-30 05:42:00,
2013-05-30 00:44:00,72.7,67.9,29.84,East,101,5.0,7.0,85,0.00,,,0.00,Wunderground v.1.15,2013-05-30 05:44:00,
2013-05-30 00:49:00,72.6,67.8,29.85,SSE,153,5.0,10.0,85,0.00,,,0.00,Wunderground v.1.15,2013-05-30 05:49:00,
2013-05-30 00:54:00,72.6,67.8,29.84,SE,139,6.0,7.0,85,0.00,,,0.00,Wunderground v.1.15,2013-05-30 05:54:00,
2013-05-30 01:00:00,72.6,67.8,29.84,SSE,156,6.0,6.0,85,0.00,,,0.00,Wunderground v.1.15,2013-05-30 06:00:00,
2013-05-30 01:02:00,72.5,67.7,29.84,ESE,110,6.0,8.0,85,0.00,,,0.00,Wunderground v.1.15,2013-05-30 06:02:00,
2013-05-30 01:06:00,72.4,67.6,29.84,East,101,6.0,8.0,85,0.00,,,0.00,Wunderground v.1.15,2013-05-30 06:06:00,
2013-05-30 01:12:00,72.4,67.6,29.84,SE,142,7.0,9.0,85,0.00,,,0.00,Wunderground v.1.15,2013-05-30 06:12:00,
2013-05-30 01:14:00,72.3,67.5,29.84,SE,128,8.0,9.0,85,0.00,,,0.00,Wunderground v.1.15,2013-05-30 06:14:00,
2013-05-30 01:20:00,72.2,67.4,29.83,SE,144,9.0,9.0,85,0.00,,,0.00,Wunderground v.1.15,2013-05-30 06:20:00,
2013-05-30 01:22:00,72.2,67.4,29.83,SE,130,9.0,10.0,85,0.00,,,0.00,Wunderground v.1.15,2013-05-30 06:22:00,
2013-05-30 01:26:00,72.2,67.4,29.83,ESE,120,9.0,11.0,85,0.00,,,0.00,Wunderground v.1.15,2013-05-30 06:26:00,
2013-05-30 01:29:00,72.3,67.5,29.83,SE,134,9.0,11.0,85,0.00,,,0.00,Wunderground v.1.15,2013-05-30 06:29:00,
2013-05-30 01:30:00,72.3,67.5,29.83,SE,133,10.0,10.0,85,0.00,,,0.00,Wunderground v.1.15,2013-05-30 06:30:00,
2013-05-30 01:32:00,72.3,67.5,29.83,SE,141,9.0,10.0,85,0.00,,,0.00,Wunderground v.1.15,2013-05-30 06:32:00,
2013-05-30 01:34:00,72.4,67.6,29.83,SSE,150,10.0,10.0,85,0.00,,,0.00,Wunderground v.1.15,2013-05-30 06:34:00,
2013-05-30 01:36:00,72.4,67.6,29.83,SE,128,10.0,11.0,85,0.00,,,0.00,Wunderground v.1.15,2013-05-30 06:36:00,
2013-05-30 01:38:00,72.5,67.4,29.82,SE,132,10.0,13.0,84,0.00,,,0.00,Wunderground v.1.15,2013-05-30 06:38:00,
2013-05-30 01:40:00,72.6,67.5,29.82,ESE,103,10.0,11.0,84,0.00,,,0.00,Wunderground v.1.15,2013-05-30 06:40:00,
2013-05-30 01:44:00,72.6,67.5,29.82,ESE,110,10.0,12.0,84,0.00,,,0.00,Wunderground v.1.15,2013-05-30 06:44:00,
2013-05-30 01:50:00,72.6,67.5,29.82,SE,144,10.0,12.0,84,0.00,,,0.00,Wunderground v.1.15,2013-05-30 06:50:00,
2013-05-30 01:52:00,72.6,67.5,29.82,ESE,112,10.0,12.0,84,0.00,,,0.00,Wunderground v.1.15,2013-05-30 06:52:00,
2013-05-30 01:54:00,72.6,67.5,29.82,SE,132,10.0,12.0,84,0.00,,,0.00,Wunderground v.1.15,2013-05-30 06:54:00,
2013-05-30 02:00:00,72.4,67.3,29.82,SE,137,8.0,8.0,84,0.00,,,0.00,Wunderground v.1.15,2013-05-30 07:00:00,
2013-05-30 02:02:00,72.4,67.3,29.82,SSE,150,8.0,8.0,84,0.00,,,0.00,Wunderground v.1.15,2013-05-30 07:02:00,
2013-05-30 02:09:00,72.2,67.1,29.81,SSE,165,8.0,8.0,84,0.00,,,0.00,Wunderground v.1.15,2013-05-30 07:09:00,
2013-05-30 02:10:00,72.1,67.0,29.81,ESE,107,8.0,8.0,84,0.00,,,0.00,Wunderground v.1.15,2013-05-30 07:10:00,
2013-05-30 02:16:00,72.0,66.9,29.81,ESE,123,8.0,10.0,84,0.00,,,0.00,Wunderground v.1.15,2013-05-30 07:16:00,
2013-05-30 02:19:00,71.9,66.8,29.81,SE,146,8.0,10.0,84,0.00,,,0.00,Wunderground v.1.15,2013-05-30 07:19:00,
2013-05-30 02:20:00,71.9,66.8,29.81,SSE,156,8.0,8.0,84,0.00,,,0.00,Wunderground v.1.15,2013-05-30 07:20:00,
2013-05-30 02:24:00,71.9,66.8,29.81,ESE,117,8.0,10.0,84,0.00,,,0.00,Wunderground v.1.15,2013-05-30 07:24:00,
2013-05-30 02:26:00,71.9,66.8,29.81,ESE,110,8.0,10.0,84,0.00,,,0.00,Wunderground v.1.15,2013-05-30 07:26:00,
2013-05-30 02:28:00,71.8,66.7,29.81,ESE,111,8.0,10.0,84,0.00,,,0.00,Wunderground v.1.15,2013-05-30 07:28:00,
2013-05-30 02:32:00,71.7,66.6,29.81,SE,134,9.0,10.0,84,0.00,,,0.00,Wunderground v.1.15,2013-05-30 07:32:00,
2013-05-30 02:36:00,71.6,66.5,29.81,SE,132,8.0,10.0,84,0.00,,,0.00,Wunderground v.1.15,2013-05-30 07:36:00,
2013-05-30 02:40:00,71.6,66.5,29.81,SE,124,8.0,12.0,84,0.00,,,0.00,Wunderground v.1.15,2013-05-30 07:40:00,
2013-05-30 02:42:00,71.6,66.5,29.81,ESE,105,8.0,12.0,84,0.00,,,0.00,Wunderground v.1.15,2013-05-30 07:42:00,
2013-05-30 02:44:00,71.6,66.5,29.81,SE,128,8.0,12.0,84,0.00,,,0.00,Wunderground v.1.15,2013-05-30 07:44:00,
2013-05-30 02:46:00,71.6,66.5,29.81,ESE,122,8.0,13.0,84,0.00,,,0.00,Wunderground v.1.15,2013-05-30 07:46:00,
2013-05-30 02:50:00,71.6,66.5,29.81,ESE,107,8.0,8.0,84,0.00,,,0.00,Wunderground v.1.15,2013-05-30 07:50:00,
2013-05-30 02:54:00,71.7,66.3,29.81,SE,131,8.0,8.0,83,0.00,,,0.00,Wunderground v.1.15,2013-05-30 07:54:00,
2013-05-30 02:59:00,71.6,66.2,29.81,SE,126,8.0,9.0,83,0.00,,,0.00,Wunderground v.1.15,2013-05-30 07:59:00,
2013-05-30 03:02:00,71.7,66.3,29.81,SE,127,8.0,8.0,83,0.00,,,0.00,Wunderground v.1.15,2013-05-30 08:02:00,
2013-05-30 03:04:00,71.7,66.3,29.81,ESE,121,8.0,8.0,83,0.00,,,0.00,Wunderground v.1.15,2013-05-30 08:04:00,
2013-05-30 03:06:00,71.6,66.2,29.81,SSE,158,8.0,11.0,83,0.00,,,0.00,Wunderground v.1.15,2013-05-30 08:06:00,
2013-05-30 03:10:00,71.6,66.2,29.81,SE,127,9.0,9.0,83,0.00,,,0.00,Wunderground v.1.15,2013-05-30 08:10:00,
2013-05-30 03:12:00,71.6,66.2,29.81,ESE,120,9.0,12.0,83,0.00,,,0.00,Wunderground v.1.15,2013-05-30 08:12:00,
2013-05-30 03:16:00,71.6,66.2,29.81,SE,146,9.0,12.0,83,0.00,,,0.00,Wunderground v.1.15,2013-05-30 08:16:00,
2013-05-30 03:19:00,71.6,66.2,29.81,SE,127,9.0,12.0,83,0.00,,,0.00,Wunderground v.1.15,2013-05-30 08:19:00,
2013-05-30 03:22:00,71.5,66.1,29.81,SE,124,8.0,9.0,83,0.00,,,0.00,Wunderground v.1.15,2013-05-30 08:22:00,
2013-05-30 03:24:00,71.5,66.1,29.81,SE,137,8.0,9.0,83,0.00,,,0.00,Wunderground v.1.15,2013-05-30 08:24:00,
2013-05-30 03:26:00,71.5,66.1,29.81,SSE,150,8.0,9.0,83,0.00,,,0.00,Wunderground v.1.15,2013-05-30 08:26:00,
2013-05-30 03:29:00,71.5,66.1,29.81,SSE,153,8.0,9.0,83,0.00,,,0.00,Wunderground v.1.15,2013-05-30 08:29:00,
2013-05-30 03:30:00,71.4,66.0,29.81,South,186,8.0,8.0,83,0.00,,,0.00,Wunderground v.1.15,2013-05-30 08:30:00,
2013-05-30 03:32:00,71.4,66.0,29.81,SE,145,8.0,9.0,83,0.00,,,0.00,Wunderground v.1.15,2013-05-30 08:32:00,
2013-05-30 03:36:00,71.3,65.9,29.81,ESE,117,7.0,9.0,83,0.00,,,0.00,Wunderground v.1.15,2013-05-30 08:36:00,
2013-05-30 03:39:00,71.2,66.1,29.81,SE,137,7.0,9.0,84,0.00,,,0.00,Wunderground v.1.15,2013-05-30 08:39:00,
2013-05-30 03:40:00,71.2,66.1,29.81,SE,125,6.0,8.0,84,0.00,,,0.00,Wunderground v.1.15,2013-05-30 08:40:00,
2013-05-30 03:42:00,71.2,66.1,29.81,SSE,149,6.0,8.0,84,0.00,,,0.00,Wunderground v.1.15,2013-05-30 08:42:00,
2013-05-30 03:44:00,71.2,66.1,29.81,ESE,112,7.0,12.0,84,0.00,,,0.00,Wunderground v.1.15,2013-05-30 08:44:00,
2013-05-30 03:50:00,71.2,66.1,29.81,SSE,147,7.0,7.0,84,0.00,,,0.00,Wunderground v.1.15,2013-05-30 08:50:00,
2013-05-30 03:52:00,71.2,66.1,29.81,SE,133,7.0,7.0,84,0.00,,,0.00,Wunderground v.1.15,2013-05-30 08:52:00,
2013-05-30 03:56:00,71.2,66.1,29.81,SE,146,7.0,7.0,84,0.00,,,0.00,Wunderground v.1.15,2013-05-30 08:56:00,
2013-05-30 03:59:00,71.1,66.0,29.81,ESE,115,7.0,7.0,84,0.00,,,0.00,Wunderground v.1.15,2013-05-30 08:59:00,
2013-05-30 04:04:00,71.0,65.9,29.81,SE,134,7.0,11.0,84,0.00,,,0.00,Wunderground v.1.15,2013-05-30 09:04:00,
2013-05-30 04:06:00,71.0,65.9,29.81,SSE,163,7.0,11.0,84,0.00,,,0.00,Wunderground v.1.15,2013-05-30 09:06:00,
2013-05-30 04:10:00,70.9,66.2,29.81,SE,146,7.0,9.0,85,0.00,,,0.00,Wunderground v.1.15,2013-05-30 09:10:00,
2013-05-30 04:12:00,70.8,66.1,29.81,SSE,150,8.0,9.0,85,0.00,,,0.00,Wunderground v.1.15,2013-05-30 09:12:00,
2013-05-30 04:14:00,70.7,66.0,29.81,ESE,117,7.0,9.0,85,0.00,,,0.00,Wunderground v.1.15,2013-05-30 09:14:00,
2013-05-30 04:19:00,70.7,66.0,29.81,SE,141,7.0,9.0,85,0.00,,,0.00,Wunderground v.1.15,2013-05-30 09:19:00,
2013-05-30 04:20:00,70.7,66.0,29.81,ESE,116,7.0,9.0,85,0.00,,,0.00,Wunderground v.1.15,2013-05-30 09:20:00,
2013-05-30 04:22:00,70.7,66.0,29.81,ESE,120,7.0,9.0,85,0.00,,,0.00,Wunderground v.1.15,2013-05-30 09:22:00,
2013-05-30 04:24:00,70.6,65.9,29.81,SE,143,7.0,9.0,85,0.00,,,0.00,Wunderground v.1.15,2013-05-30 09:24:00,
2013-05-30 04:30:00,70.6,66.2,29.81,SE,124,7.0,7.0,86,0.00,,,0.00,Wunderground v.1.15,2013-05-30 09:30:00,
2013-05-30 04:32:00,70.5,66.1,29.81,ESE,108,6.0,7.0,86,0.00,,,0.00,Wunderground v.1.15,2013-05-30 09:32:00,
2013-05-30 04:34:00,70.5,66.1,29.81,ESE,118,6.0,9.0,86,0.00,,,0.00,Wunderground v.1.15,2013-05-30 09:34:00,
2013-05-30 04:38:00,70.6,66.2,29.81,SSE,162,7.0,10.0,86,0.00,,,0.00,Wunderground v.1.15,2013-05-30 09:38:00,
2013-05-30 04:40:00,70.6,66.2,29.81,SE,136,7.0,7.0,86,0.00,,,0.00,Wunderground v.1.15,2013-05-30 09:40:00,
2013-05-30 04:46:00,70.5,66.1,29.81,SE,138,7.0,7.0,86,0.00,,,0.00,Wunderground v.1.15,2013-05-30 09:46:00,
2013-05-30 04:49:00,70.6,66.2,29.80,ESE,116,7.0,14.0,86,0.00,,,0.00,Wunderground v.1.15,2013-05-30 09:49:00,
2013-05-30 04:50:00,70.6,66.2,29.80,ESE,117,8.0,11.0,86,0.00,,,0.00,Wunderground v.1.15,2013-05-30 09:50:00,
2013-05-30 04:52:00,70.6,66.2,29.80,ESE,110,8.0,11.0,86,0.00,,,0.00,Wunderground v.1.15,2013-05-30 09:52:00,
2013-05-30 04:59:00,70.6,66.2,29.80,SE,130,10.0,11.0,86,0.00,,,0.00,Wunderground v.1.15,2013-05-30 09:59:00,
2013-05-30 05:02:00,70.7,66.3,29.80,SSE,147,9.0,9.0,86,0.00,,,0.00,Wunderground v.1.15,2013-05-30 10:02:00,
2013-05-30 05:06:00,70.7,66.3,29.80,ESE,121,9.0,9.0,86,0.00,,,0.00,Wunderground v.1.15,2013-05-30 10:06:00,
2013-05-30 05:10:00,70.7,66.3,29.80,SE,131,8.0,8.0,86,0.00,,,0.00,Wunderground v.1.15,2013-05-30 10:10:00,
2013-05-30 05:12:00,70.7,66.3,29.80,ESE,117,8.0,8.0,86,0.00,,,0.00,Wunderground v.1.15,2013-05-30 10:12:00,
2013-05-30 05:14:00,70.7,66.3,29.80,SE,136,7.0,8.0,86,0.00,,,0.00,Wunderground v.1.15,2013-05-30 10:14:00,
2013-05-30 05:19:00,70.5,66.1,29.80,SE,132,6.0,8.0,86,0.00,,,0.00,Wunderground v.1.15,2013-05-30 10:19:00,
2013-05-30 05:20:00,70.5,66.1,29.80,SE,131,6.0,6.0,86,0.00,,,0.00,Wunderground v.1.15,2013-05-30 10:20:00,
2013-05-30 05:24:00,70.6,66.2,29.81,SSE,148,5.0,7.0,86,0.00,,,0.00,Wunderground v.1.15,2013-05-30 10:24:00,
2013-05-30 05:29:00,70.7,66.3,29.81,ESE,114,5.0,9.0,86,0.00,,,0.00,Wunderground v.1.15,2013-05-30 10:29:00,
2013-05-30 05:32:00,70.8,66.4,29.81,SE,134,5.0,7.0,86,0.00,,,0.00,Wunderground v.1.15,2013-05-30 10:32:00,
2013-05-30 05:38:00,70.9,66.5,29.81,East,89,5.0,10.0,86,0.00,,,0.00,Wunderground v.1.15,2013-05-30 10:38:00,
2013-05-30 05:40:00,70.9,66.5,29.81,ESE,121,5.0,7.0,86,0.00,,,0.00,Wunderground v.1.15,2013-05-30 10:40:00,
2013-05-30 05:44:00,70.8,66.4,29.81,ESE,105,5.0,7.0,86,0.00,,,0.00,Wunderground v.1.15,2013-05-30 10:44:00,
2013-05-30 05:46:00,70.9,66.5,29.81,SSE,150,6.0,7.0,86,0.00,,,0.00,Wunderground v.1.15,2013-05-30 10:46:00,
2013-05-30 05:49:00,71.0,66.6,29.81,ENE,70,6.0,7.0,86,0.00,,,0.00,Wunderground v.1.15,2013-05-30 10:49:00,
2013-05-30 05:52:00,71.0,66.6,29.81,SE,143,6.0,7.0,86,0.00,,,0.00,Wunderground v.1.15,2013-05-30 10:52:00,
2013-05-30 05:54:00,71.0,66.6,29.81,SE,131,6.0,7.0,86,0.00,,,0.00,Wunderground v.1.15,2013-05-30 10:54:00,
2013-05-30 05:56:00,71.0,66.6,29.81,SE,128,6.0,7.0,86,0.00,,,0.00,Wunderground v.1.15,2013-05-30 10:56:00,
2013-05-30 05:59:00,71.0,66.6,29.81,SE,140,6.0,7.0,86,0.00,,,0.00,Wunderground v.1.15,2013-05-30 10:59:00,
2013-05-30 06:00:00,71.0,66.6,29.81,ESE,110,6.0,8.0,86,0.00,,,0.00,Wunderground v.1.15,2013-05-30 11:00:00,
2013-05-30 06:04:00,71.0,66.6,29.81,ESE,116,6.0,8.0,86,0.00,,,0.00,Wunderground v.1.15,2013-05-30 11:04:00,
2013-05-30 06:09:00,71.1,66.7,29.81,East,82,6.0,8.0,86,0.00,,,0.00,Wunderground v.1.15,2013-05-30 11:09:00,
2013-05-30 06:10:00,71.1,66.7,29.81,ESE,110,6.0,7.0,86,0.00,,,0.00,Wunderground v.1.15,2013-05-30 11:10:00,
2013-05-30 06:16:00,71.0,66.6,29.81,SE,127,6.0,10.0,86,0.00,,,0.00,Wunderground v.1.15,2013-05-30 11:16:00,
2013-05-30 06:18:00,71.1,66.7,29.81,ESE,110,6.0,10.0,86,0.00,,,0.00,Wunderground v.1.15,2013-05-30 11:18:00,
2013-05-30 06:20:00,71.1,66.7,29.81,SSE,153,6.0,6.0,86,0.00,,,0.00,Wunderground v.1.15,2013-05-30 11:20:00,
2013-05-30 06:22:00,71.3,66.9,29.81,SSE,153,6.0,7.0,86,0.00,,,0.00,Wunderground v.1.15,2013-05-30 11:22:00,
2013-05-30 06:26:00,71.4,67.0,29.81,SSE,153,6.0,7.0,86,0.00,,,0.00,Wunderground v.1.15,2013-05-30 11:26:00,
2013-05-30 06:29:00,71.4,67.0,29.81,ESE,117,6.0,7.0,86,0.00,,,0.00,Wunderground v.1.15,2013-05-30 11:29:00,
2013-05-30 06:30:00,71.4,67.0,29.81,ESE,123,6.0,6.0,86,0.00,,,0.00,Wunderground v.1.15,2013-05-30 11:30:00,
2013-05-30 06:32:00,71.4,67.0,29.81,ESE,115,6.0,7.0,86,0.00,,,0.00,Wunderground v.1.15,2013-05-30 11:32:00,
2013-05-30 06:34:00,71.4,67.0,29.81,ESE,117,6.0,7.0,86,0.00,,,0.00,Wunderground v.1.15,2013-05-30 11:34:00,
2013-05-30 06:39:00,71.6,67.2,29.81,ESE,117,6.0,8.0,86,0.00,,,0.00,Wunderground v.1.15,2013-05-30 11:39:00,
2013-05-30 06:40:00,71.6,67.2,29.81,SSE,165,7.0,7.0,86,0.00,,,0.00,Wunderground v.1.15,2013-05-30 11:40:00,
2013-05-30 06:42:00,71.7,67.3,29.81,SE,134,7.0,7.0,86,0.00,,,0.00,Wunderground v.1.15,2013-05-30 11:42:00,
2013-05-30 06:46:00,72.1,67.7,29.81,SE,141,7.0,8.0,86,0.00,,,0.00,Wunderground v.1.15,2013-05-30 11:46:00,
2013-05-30 06:49:00,72.3,67.9,29.81,SSE,153,7.0,8.0,86,0.00,,,0.00,Wunderground v.1.15,2013-05-30 11:49:00,
2013-05-30 06:50:00,72.4,68.0,29.81,SE,146,7.0,8.0,86,0.00,,,0.00,Wunderground v.1.15,2013-05-30 11:50:00,
2013-05-30 06:52:00,72.6,67.8,29.81,SE,129,7.0,8.0,85,0.00,,,0.00,Wunderground v.1.15,2013-05-30 11:52:00,
2013-05-30 06:54:00,72.9,68.1,29.81,SE,143,7.0,8.0,85,0.00,,,0.00,Wunderground v.1.15,2013-05-30 11:54:00,
2013-05-30 06:56:00,73.1,68.3,29.81,SSE,163,6.0,8.0,85,0.00,,,0.00,Wunderground v.1.15,2013-05-30 11:56:00,
2013-05-30 07:00:00,73.6,68.5,29.81,South,180,6.0,6.0,84,0.00,,,0.00,Wunderground v.1.15,2013-05-30 12:00:00,
2013-05-30 07:02:00,73.8,68.3,29.81,East,81,6.0,7.0,83,0.00,,,0.00,Wunderground v.1.15,2013-05-30 12:02:00,
2013-05-30 07:04:00,74.0,68.5,29.81,SSE,148,6.0,8.0,83,0.00,,,0.00,Wunderground v.1.15,2013-05-30 12:04:00,
2013-05-30 07:06:00,74.0,68.5,29.81,ESE,120,6.0,8.0,83,0.00,,,0.00,Wunderground v.1.15,2013-05-30 12:06:00,
2013-05-30 07:08:00,74.1,68.6,29.81,East,97,7.0,8.0,83,0.00,,,0.00,Wunderground v.1.15,2013-05-30 12:08:00,
2013-05-30 07:10:00,74.2,68.7,29.81,ESE,117,7.0,8.0,83,0.00,,,0.00,Wunderground v.1.15,2013-05-30 12:10:00,
2013-05-30 07:14:00,74.2,68.7,29.80,ESE,116,8.0,13.0,83,0.00,,,0.00,Wunderground v.1.15,2013-05-30 12:14:00,
2013-05-30 07:16:00,74.2,68.7,29.80,SE,141,9.0,13.0,83,0.00,,,0.00,Wunderground v.1.15,2013-05-30 12:16:00,
2013-05-30 07:19:00,74.4,68.9,29.80,ESE,112,9.0,13.0,83,0.00,,,0.00,Wunderground v.1.15,2013-05-30 12:19:00,
2013-05-30 07:22:00,74.6,68.7,29.80,SE,124,9.0,12.0,82,0.00,,,0.00,Wunderground v.1.15,2013-05-30 12:22:00,
2013-05-30 07:24:00,74.7,69.2,29.80,SSE,160,9.0,12.0,83,0.00,,,0.00,Wunderground v.1.15,2013-05-30 12:24:00,
2013-05-30 07:26:00,74.8,68.9,29.80,ESE,123,9.0,12.0,82,0.00,,,0.00,Wunderground v.1.15,2013-05-30 12:26:00,
2013-05-30 07:29:00,74.9,69.4,29.81,SE,131,9.0,12.0,83,0.00,,,0.00,Wunderground v.1.15,2013-05-30 12:29:00,
2013-05-30 07:32:00,75.1,69.2,29.81,South,187,9.0,12.0,82,0.00,,,0.00,Wunderground v.1.15,2013-05-30 12:32:00,
2013-05-30 07:34:00,75.3,69.4,29.81,SSE,160,9.0,12.0,82,0.00,,,0.00,Wunderground v.1.15,2013-05-30 12:34:00,
2013-05-30 07:36:00,75.4,69.5,29.81,SE,132,9.0,12.0,82,0.00,,,0.00,Wunderground v.1.15,2013-05-30 12:36:00,
2013-05-30 07:42:00,75.7,69.5,29.81,SE,139,8.0,9.0,81,0.00,,,0.00,Wunderground v.1.15,2013-05-30 12:42:00,
2013-05-30 07:44:00,75.9,69.6,29.81,SSE,154,7.0,9.0,81,0.00,,,0.00,Wunderground v.1.15,2013-05-30 12:44:00,
2013-05-30 07:49:00,76.1,69.8,29.81,SSE,148,7.0,12.0,81,0.00,,,0.00,Wunderground v.1.15,2013-05-30 12:49:00,
2013-05-30 07:50:00,76.1,69.5,29.81,SSW,195,8.0,8.0,80,0.00,,,0.00,Wunderground v.1.15,2013-05-30 12:50:00,
2013-05-30 07:52:00,76.1,69.5,29.81,SSE,155,8.0,10.0,80,0.00,,,0.00,Wunderground v.1.15,2013-05-30 12:52:00,
2013-05-30 07:56:00,76.1,69.8,29.81,SSW,193,9.0,14.0,81,0.00,,,0.00,Wunderground v.1.15,2013-05-30 12:56:00,
2013-05-30 07:59:00,76.3,69.7,29.80,SSE,167,10.0,14.0,80,0.00,,,0.00,Wunderground v.1.15,2013-05-30 12:59:00,
2013-05-30 08:00:00,76.3,69.7,29.81,SSE,150,9.0,10.0,80,0.00,,,0.00,Wunderground v.1.15,2013-05-30 13:00:00,
2013-05-30 08:02:00,76.4,69.8,29.81,SE,129,9.0,10.0,80,0.00,,,0.00,Wunderground v.1.15,2013-05-30 13:02:00,
2013-05-30 08:04:00,76.4,69.4,29.80,East,99,9.0,15.0,79,0.00,,,0.00,Wunderground v.1.15,2013-05-30 13:04:00,
2013-05-30 08:06:00,76.4,69.4,29.80,SSE,153,10.0,15.0,79,0.00,,,0.00,Wunderground v.1.15,2013-05-30 13:06:00,
2013-05-30 08:08:00,76.5,69.9,29.80,SE,124,10.0,15.0,80,0.00,,,0.00,Wunderground v.1.15,2013-05-30 13:08:00,
2013-05-30 08:12:00,76.7,70.1,29.80,SE,126,10.0,13.0,80,0.00,,,0.00,Wunderground v.1.15,2013-05-30 13:12:00,
2013-05-30 08:14:00,76.8,69.8,29.80,SSE,153,9.0,13.0,79,0.00,,,0.00,Wunderground v.1.15,2013-05-30 13:14:00,
2013-05-30 08:16:00,77.0,70.4,29.80,ESE,109,9.0,13.0,80,0.00,,,0.00,Wunderground v.1.15,2013-05-30 13:16:00,
2013-05-30 08:19:00,77.2,70.2,29.80,ESE,122,8.0,13.0,79,0.00,,,0.00,Wunderground v.1.15,2013-05-30 13:19:00,
2013-05-30 08:24:00,77.3,70.3,29.81,ESE,108,9.0,15.0,79,0.00,,,0.00,Wunderground v.1.15,2013-05-30 13:24:00,
2013-05-30 08:26:00,77.5,70.5,29.81,ESE,110,9.0,15.0,79,0.00,,,0.00,Wunderground v.1.15,2013-05-30 13:26:00,
2013-05-30 08:29:00,77.6,70.2,29.81,SSW,199,9.0,15.0,78,0.00,,,0.00,Wunderground v.1.15,2013-05-30 13:29:00,
2013-05-30 08:30:00,77.6,70.2,29.81,ESE,117,10.0,10.0,78,0.00,,,0.00,Wunderground v.1.15,2013-05-30 13:30:00,
2013-05-30 08:32:00,77.6,70.6,29.81,SE,124,10.0,14.0,79,0.00,,,0.00,Wunderground v.1.15,2013-05-30 13:32:00,
2013-05-30 08:36:00,77.6,70.2,29.81,ESE,112,12.0,18.0,78,0.00,,,0.00,Wunderground v.1.15,2013-05-30 13:36:00,
2013-05-30 08:38:00,77.7,70.3,29.81,SW,232,12.0,18.0,78,0.00,,,0.00,Wunderground v.1.15,2013-05-30 13:38:00,
2013-05-30 08:42:00,78.0,70.2,29.81,South,189,12.0,17.0,77,0.00,,,0.00,Wunderground v.1.15,2013-05-30 13:42:00,
2013-05-30 08:44:00,78.1,70.3,29.81,SE,146,11.0,17.0,77,0.00,,,0.00,Wunderground v.1.15,2013-05-30 13:44:00,
2013-05-30 08:46:00,78.2,70.8,29.81,SSE,149,11.0,17.0,78,0.00,,,0.00,Wunderground v.1.15,2013-05-30 13:46:00,
2013-05-30 08:50:00,78.3,70.5,29.81,SSW,205,11.0,17.0,77,0.00,,,0.00,Wunderground v.1.15,2013-05-30 13:50:00,
2013-05-30 08:54:00,78.3,70.1,29.81,SSE,166,12.0,22.0,76,0.00,,,0.00,Wunderground v.1.15,2013-05-30 13:54:00,
2013-05-30 08:59:00,78.5,70.7,29.81,SE,139,12.0,22.0,77,0.00,,,0.00,Wunderground v.1.15,2013-05-30 13:59:00,
2013-05-30 09:02:00,78.6,70.0,29.80,SE,143,14.0,26.0,75,0.00,,,0.00,Wunderground v.1.15,2013-05-30 14:02:00,
2013-05-30 09:04:00,78.6,70.4,29.80,South,172,14.0,26.0,76,0.00,,,0.00,Wunderground v.1.15,2013-05-30 14:04:00,
2013-05-30 09:08:00,78.8,70.6,29.80,SSE,158,15.0,26.0,76,0.00,,,0.00,Wunderground v.1.15,2013-05-30 14:08:00,
2013-05-30 09:10:00,78.8,70.2,29.80,SE,134,14.0,14.0,75,0.00,,,0.00,Wunderground v.1.15,2013-05-30 14:10:00,
2013-05-30 09:14:00,78.4,70.2,29.80,East,101,13.0,21.0,76,0.00,,,0.00,Wunderground v.1.15,2013-05-30 14:14:00,
2013-05-30 09:16:00,78.3,70.5,29.80,East,83,12.0,21.0,77,0.00,,,0.00,Wunderground v.1.15,2013-05-30 14:16:00,
2013-05-30 09:19:00,78.4,70.6,29.80,SSE,160,12.0,21.0,77,0.00,,,0.00,Wunderground v.1.15,2013-05-30 14:19:00,
2013-05-30 09:20:00,78.4,70.6,29.80,SE,127,12.0,12.0,77,0.00,,,0.00,Wunderground v.1.15,2013-05-30 14:20:00,
2013-05-30 09:24:00,78.4,70.6,29.79,South,169,10.0,12.0,77,0.00,,,0.00,Wunderground v.1.15,2013-05-30 14:24:00,
2013-05-30 09:29:00,78.3,70.5,29.79,SSE,166,10.0,12.0,77,0.00,,,0.00,Wunderground v.1.15,2013-05-30 14:29:00,
2013-05-30 09:30:00,78.5,70.7,29.79,SSE,153,9.0,9.0,77,0.00,,,0.00,Wunderground v.1.15,2013-05-30 14:30:00,
2013-05-30 09:32:00,78.6,70.8,29.79,SSE,153,9.0,16.0,77,0.00,,,0.00,Wunderground v.1.15,2013-05-30 14:32:00,
2013-05-30 09:34:00,78.7,70.9,29.79,SE,128,10.0,16.0,77,0.00,,,0.00,Wunderground v.1.15,2013-05-30 14:34:00,
2013-05-30 09:38:00,78.9,70.7,29.79,South,174,11.0,29.0,76,0.00,,,0.00,Wunderground v.1.15,2013-05-30 14:38:00,
2013-05-30 09:40:00,79.0,70.4,29.79,SSE,155,12.0,12.0,75,0.00,,,0.00,Wunderground v.1.15,2013-05-30 14:40:00,
2013-05-30 09:42:00,79.2,71.0,29.79,East,101,13.0,14.0,76,0.00,,,0.00,Wunderground v.1.15,2013-05-30 14:42:00,
2013-05-30 09:46:00,79.5,70.9,29.78,South,181,13.0,18.0,75,0.00,,,0.00,Wunderground v.1.15,2013-05-30 14:46:00,
2013-05-30 09:49:00,79.7,70.7,29.78,West,264,13.0,18.0,74,0.00,,,0.00,Wunderground v.1.15,2013-05-30 14:49:00,
2013-05-30 09:50:00,79.8,70.8,29.78,South,181,12.0,20.0,74,0.00,,,0.00,Wunderground v.1.15,2013-05-30 14:50:00,
2013-05-30 09:54:00,79.8,70.8,29.79,South,176,12.0,24.0,74,0.00,,,0.00,Wunderground v.1.15,2013-05-30 14:54:00,
2013-05-30 09:56:00,79.9,70.9,29.78,SE,129,12.0,24.0,74,0.00,,,0.00,Wunderground v.1.15,2013-05-30 14:56:00,
2013-05-30 09:59:00,80.1,71.1,29.79,SSE,156,13.0,24.0,74,0.00,,,0.00,Wunderground v.1.15,2013-05-30 14:59:00,
2013-05-30 10:02:00,80.2,71.2,29.78,SSE,155,12.0,13.0,74,0.00,,,0.00,Wunderground v.1.15,2013-05-30 15:02:00,
2013-05-30 10:04:00,80.4,71.7,29.79,SSE,155,12.0,13.0,75,0.00,,,0.00,Wunderground v.1.15,2013-05-30 15:04:00,
2013-05-30 10:06:00,80.5,71.4,29.79,SSE,156,12.0,15.0,74,0.00,,,0.00,Wunderground v.1.15,2013-05-30 15:06:00,
2013-05-30 10:08:00,80.7,71.6,29.79,South,190,11.0,15.0,74,0.00,,,0.00,Wunderground v.1.15,2013-05-30 15:08:00,
2013-05-30 10:10:00,80.8,72.1,29.79,South,170,12.0,12.0,75,0.00,,,0.00,Wunderground v.1.15,2013-05-30 15:10:00,
2013-05-30 10:14:00,81.0,71.5,29.79,SE,124,13.0,23.0,73,0.00,,,0.00,Wunderground v.1.15,2013-05-30 15:14:00,
2013-05-30 10:16:00,80.9,71.4,29.80,SSE,162,14.0,23.0,73,0.00,,,0.00,Wunderground v.1.15,2013-05-30 15:16:00,
2013-05-30 10:20:00,81.0,71.5,29.80,SE,146,14.0,14.0,73,0.00,,,0.00,Wunderground v.1.15,2013-05-30 15:20:00,
2013-05-30 10:22:00,81.0,71.5,29.80,South,183,14.0,19.0,73,0.00,,,0.00,Wunderground v.1.15,2013-05-30 15:22:00,
2013-05-30 10:26:00,81.0,70.7,29.80,SSW,195,13.0,19.0,71,0.00,,,0.00,Wunderground v.1.15,2013-05-30 15:26:00,
2013-05-30 10:29:00,81.1,71.6,29.80,SE,146,14.0,19.0,73,0.00,,,0.00,Wunderground v.1.15,2013-05-30 15:29:00,
2013-05-30 10:34:00,81.2,71.7,29.80,SE,131,14.0,24.0,73,0.00,,,0.00,Wunderground v.1.15,2013-05-30 15:34:00,
2013-05-30 10:36:00,81.3,71.4,29.79,SSE,159,14.0,24.0,72,0.00,,,0.00,Wunderground v.1.15,2013-05-30 15:36:00,
2013-05-30 10:39:00,81.4,71.5,29.79,South,170,14.0,24.0,72,0.00,,,0.00,Wunderground v.1.15,2013-05-30 15:39:00,
2013-05-30 10:40:00,81.5,71.6,29.79,SSE,159,12.0,12.0,72,0.00,,,0.00,Wunderground v.1.15,2013-05-30 15:40:00,
2013-05-30 10:42:00,81.6,71.7,29.79,SSE,167,12.0,12.0,72,0.00,,,0.00,Wunderground v.1.15,2013-05-30 15:42:00,
2013-05-30 10:44:00,81.7,71.8,29.79,South,169,12.0,24.0,72,0.00,,,0.00,Wunderground v.1.15,2013-05-30 15:44:00,
2013-05-30 10:46:00,81.7,71.4,29.79,SSE,153,13.0,24.0,71,0.00,,,0.00,Wunderground v.1.15,2013-05-30 15:46:00,
2013-05-30 10:48:00,81.8,71.9,29.80,South,170,13.0,26.0,72,0.00,,,0.00,Wunderground v.1.15,2013-05-30 15:48:00,
2013-05-30 10:50:00,81.7,71.0,29.79,South,170,15.0,26.0,70,0.00,,,0.00,Wunderground v.1.15,2013-05-30 15:50:00,
2013-05-30 10:52:00,81.3,70.6,29.79,ESE,117,17.0,26.0,70,0.00,,,0.00,Wunderground v.1.15,2013-05-30 15:52:00,
2013-05-30 10:54:00,81.3,71.4,29.79,SSE,167,17.0,26.0,72,0.00,,,0.00,Wunderground v.1.15,2013-05-30 15:54:00,
2013-05-30 10:56:00,81.5,71.2,29.79,South,176,17.0,26.0,71,0.00,,,0.00,Wunderground v.1.15,2013-05-30 15:56:00,
2013-05-30 11:02:00,81.8,70.6,29.79,SE,143,16.0,23.0,69,0.00,,,0.00,Wunderground v.1.15,2013-05-30 16:02:00,
2013-05-30 11:04:00,81.8,70.6,29.79,SE,146,17.0,23.0,69,0.00,,,0.00,Wunderground v.1.15,2013-05-30 16:04:00,
2013-05-30 11:09:00,82.0,71.7,29.79,South,177,17.0,23.0,71,0.00,,,0.00,Wunderground v.1.15,2013-05-30 16:09:00,
2013-05-30 11:10:00,82.0,71.2,29.79,SSE,165,17.0,17.0,70,0.00,,,0.00,Wunderground v.1.15,2013-05-30 16:10:00,
2013-05-30 11:12:00,82.0,71.2,29.79,ESE,113,16.0,17.0,70,0.00,,,0.00,Wunderground v.1.15,2013-05-30 16:12:00,
2013-05-30 11:14:00,82.0,71.2,29.79,SSW,195,15.0,26.0,70,0.00,,,0.00,Wunderground v.1.15,2013-05-30 16:14:00,
2013-05-30 11:19:00,82.4,70.8,29.79,SSE,149,15.0,26.0,68,0.00,,,0.00,Wunderground v.1.15,2013-05-30 16:19:00,
2013-05-30 11:20:00,82.4,71.2,29.79,SSE,166,15.0,22.0,69,0.00,,,0.00,Wunderground v.1.15,2013-05-30 16:20:00,
2013-05-30 11:22:00,82.4,71.6,29.79,ESE,117,16.0,22.0,70,0.00,,,0.00,Wunderground v.1.15,2013-05-30 16:22:00,
2013-05-30 11:26:00,82.5,70.0,29.79,SSE,163,18.0,28.0,66,0.00,,,0.00,Wunderground v.1.15,2013-05-30 16:26:00,
2013-05-30 11:28:00,82.3,70.2,29.79,South,183,20.0,28.0,67,0.00,,,0.00,Wunderground v.1.15,2013-05-30 16:28:00,
2013-05-30 11:32:00,82.6,71.0,29.79,South,179,21.0,21.0,68,0.00,,,0.00,Wunderground v.1.15,2013-05-30 16:32:00,
2013-05-30 11:36:00,82.6,71.0,29.79,SSE,165,20.0,25.0,68,0.00,,,0.00,Wunderground v.1.15,2013-05-30 16:36:00,
2013-05-30 11:40:00,82.5,70.9,29.79,South,173,18.0,18.0,68,0.00,,,0.00,Wunderground v.1.15,2013-05-30 16:40:00,
2013-05-30 11:46:00,82.8,71.6,29.78,South,174,15.0,25.0,69,0.00,,,0.00,Wunderground v.1.15,2013-05-30 16:46:00,
2013-05-30 11:48:00,82.9,70.8,29.79,South,183,15.0,25.0,67,0.00,,,0.00,Wunderground v.1.15,2013-05-30 16:48:00,
2013-05-30 11:50:00,82.9,70.8,29.79,SSE,159,15.0,15.0,67,0.00,,,0.00,Wunderground v.1.15,2013-05-30 16:50:00,
2013-05-30 11:54:00,82.8,69.8,29.79,South,172,18.0,30.0,65,0.00,,,0.00,Wunderground v.1.15,2013-05-30 16:54:00,
2013-05-30 11:56:00,82.9,69.9,29.78,South,179,19.0,30.0,65,0.00,,,0.00,Wunderground v.1.15,2013-05-30 16:56:00,
2013-05-30 11:59:00,83.1,70.6,29.78,ESE,103,19.0,30.0,66,0.00,,,0.00,Wunderground v.1.15,2013-05-30 16:59:00,
2013-05-30 12:00:00,83.2,70.2,29.78,SSE,157,20.0,24.0,65,0.00,,,0.00,Wunderground v.1.15,2013-05-30 17:00:00,
2013-05-30 12:02:00,83.2,70.2,29.79,ESE,115,21.0,24.0,65,0.00,,,0.00,Wunderground v.1.15,2013-05-30 17:02:00,
2013-05-30 12:04:00,83.4,70.8,29.79,SE,140,18.0,24.0,66,0.00,,,0.00,Wunderground v.1.15,2013-05-30 17:04:00,
2013-05-30 12:09:00,83.5,70.9,29.79,SSE,166,18.0,24.0,66,0.00,,,0.00,Wunderground v.1.15,2013-05-30 17:09:00,
2013-05-30 12:10:00,83.6,70.6,29.79,SSW,193,16.0,16.0,65,0.00,,,0.00,Wunderground v.1.15,2013-05-30 17:10:00,
2013-05-30 12:14:00,83.2,70.7,29.78,SE,146,17.0,27.0,66,0.00,,,0.00,Wunderground v.1.15,2013-05-30 17:14:00,
2013-05-30 12:16:00,83.0,70.0,29.79,SSE,160,17.0,27.0,65,0.00,,,0.00,Wunderground v.1.15,2013-05-30 17:16:00,
2013-05-30 12:20:00,83.0,70.5,29.79,SSW,208,16.0,17.0,66,0.00,,,0.00,Wunderground v.1.15,2013-05-30 17:20:00,
2013-05-30 12:22:00,83.1,71.0,29.79,South,174,16.0,17.0,67,0.00,,,0.00,Wunderground v.1.15,2013-05-30 17:22:00,
2013-05-30 12:24:00,83.3,70.3,29.78,SSW,203,15.0,29.0,65,0.00,,,0.00,Wunderground v.1.15,2013-05-30 17:24:00,
2013-05-30 12:28:00,83.2,70.7,29.79,SSE,167,15.0,29.0,66,0.00,,,0.00,Wunderground v.1.15,2013-05-30 17:28:00,
2013-05-30 12:30:00,83.2,71.1,29.78,SSE,163,15.0,15.0,67,0.00,,,0.00,Wunderground v.1.15,2013-05-30 17:30:00,
2013-05-30 12:32:00,83.1,71.0,29.79,East,95,15.0,15.0,67,0.00,,,0.00,Wunderground v.1.15,2013-05-30 17:32:00,
2013-05-30 12:36:00,83.0,70.5,29.79,SSE,155,16.0,24.0,66,0.00,,,0.00,Wunderground v.1.15,2013-05-30 17:36:00,
2013-05-30 12:39:00,83.1,70.6,29.79,SSW,205,16.0,24.0,66,0.00,,,0.00,Wunderground v.1.15,2013-05-30 17:39:00,
2013-05-30 12:42:00,83.2,70.7,29.79,South,173,15.0,20.0,66,0.00,,,0.00,Wunderground v.1.15,2013-05-30 17:42:00,
2013-05-30 12:44:00,83.0,70.5,29.79,South,170,16.0,21.0,66,0.00,,,0.00,Wunderground v.1.15,2013-05-30 17:44:00,
2013-05-30 12:49:00,82.9,70.4,29.78,SSE,158,14.0,28.0,66,0.00,,,0.00,Wunderground v.1.15,2013-05-30 17:49:00,
2013-05-30 12:52:00,83.3,70.8,29.78,East,87,15.0,25.0,66,0.00,,,0.00,Wunderground v.1.15,2013-05-30 17:52:00,
2013-05-30 12:54:00,83.4,70.8,29.79,SSW,205,15.0,25.0,66,0.00,,,0.00,Wunderground v.1.15,2013-05-30 17:54:00,
2013-05-30 12:56:00,83.6,71.0,29.78,South,179,15.0,25.0,66,0.00,,,0.00,Wunderground v.1.15,2013-05-30 17:56:00,
2013-05-30 12:58:00,83.7,69.8,29.78,South,186,14.0,32.0,63,0.00,,,0.00,Wunderground v.1.15,2013-05-30 17:58:00,
2013-05-30 13:00:00,83.6,70.1,29.78,South,184,16.0,25.0,64,0.00,,,0.00,Wunderground v.1.15,2013-05-30 18:00:00,
2013-05-30 13:04:00,83.5,70.5,29.78,SSE,159,16.0,25.0,65,0.00,,,0.00,Wunderground v.1.15,2013-05-30 18:04:00,
2013-05-30 13:06:00,83.4,69.9,29.78,SE,127,16.0,25.0,64,0.00,,,0.00,Wunderground v.1.15,2013-05-30 18:06:00,
2013-05-30 13:08:00,83.3,70.3,29.78,South,177,18.0,25.0,65,0.00,,,0.00,Wunderground v.1.15,2013-05-30 18:08:00,
2013-05-30 13:14:00,83.0,70.0,29.78,SSE,158,18.0,24.0,65,0.00,,,0.00,Wunderground v.1.15,2013-05-30 18:14:00,
2013-05-30 13:16:00,83.1,70.1,29.78,SSE,168,18.0,24.0,65,0.00,,,0.00,Wunderground v.1.15,2013-05-30 18:16:00,
2013-05-30 13:19:00,83.2,69.8,29.78,SSE,167,18.0,24.0,64,0.00,,,0.00,Wunderground v.1.15,2013-05-30 18:19:00,
2013-05-30 13:20:00,83.2,70.2,29.78,South,183,18.0,18.0,65,0.00,,,0.00,Wunderground v.1.15,2013-05-30 18:20:00,
2013-05-30 13:24:00,83.3,69.8,29.78,SE,131,18.0,25.0,64,0.00,,,0.00,Wunderground v.1.15,2013-05-30 18:24:00,
2013-05-30 13:26:00,83.3,70.3,29.78,South,173,18.0,25.0,65,0.00,,,0.00,Wunderground v.1.15,2013-05-30 18:26:00,
2013-05-30 13:30:00,83.3,70.8,29.78,South,171,18.0,18.0,66,0.00,,,0.00,Wunderground v.1.15,2013-05-30 18:30:00,
2013-05-30 13:34:00,83.5,70.5,29.77,SSE,164,15.0,22.0,65,0.00,,,0.00,Wunderground v.1.15,2013-05-30 18:34:00,
2013-05-30 13:36:00,83.5,70.9,29.77,SSE,147,15.0,22.0,66,0.00,,,0.00,Wunderground v.1.15,2013-05-30 18:36:00,
2013-05-30 13:40:00,83.5,70.0,29.77,South,177,13.0,15.0,64,0.00,,,0.00,Wunderground v.1.15,2013-05-30 18:40:00,
2013-05-30 13:42:00,83.4,70.8,29.77,SE,143,14.0,15.0,66,0.00,,,0.00,Wunderground v.1.15,2013-05-30 18:42:00,
2013-05-30 13:44:00,83.1,70.6,29.77,SSE,160,14.0,18.0,66,0.00,,,0.00,Wunderground v.1.15,2013-05-30 18:44:00,
2013-05-30 13:49:00,82.8,71.2,29.77,SSW,195,14.0,20.0,68,0.00,,,0.00,Wunderground v.1.15,2013-05-30 18:49:00,
2013-05-30 13:52:00,82.8,70.3,29.76,South,170,13.0,25.0,66,0.00,,,0.00,Wunderground v.1.15,2013-05-30 18:52:00,
2013-05-30 13:54:00,83.0,70.9,29.76,ESE,118,14.0,25.0,67,0.00,,,0.00,Wunderground v.1.15,2013-05-30 18:54:00,
2013-05-30 13:56:00,83.5,70.9,29.76,SSE,156,13.0,25.0,66,0.00,,,0.00,Wunderground v.1.15,2013-05-30 18:56:00,
2013-05-30 13:59:00,83.9,69.5,29.76,SSW,193,13.0,25.0,62,0.00,,,0.00,Wunderground v.1.15,2013-05-30 18:59:00,
2013-05-30 14:02:00,83.8,68.4,29.75,South,173,16.0,23.0,60,0.00,,,0.00,Wunderground v.1.15,2013-05-30 19:02:00,
2013-05-30 14:04:00,83.7,69.3,29.75,SSE,150,16.0,23.0,62,0.00,,,0.00,Wunderground v.1.15,2013-05-30 19:04:00,
2013-05-30 14:09:00,83.1,70.1,29.75,SE,135,16.0,23.0,65,0.00,,,0.00,Wunderground v.1.15,2013-05-30 19:09:00,
2013-05-30 14:10:00,82.9,69.9,29.75,ESE,120,15.0,15.0,65,0.00,,,0.00,Wunderground v.1.15,2013-05-30 19:10:00,
2013-05-30 14:16:00,81.3,70.6,29.75,ESE,120,12.0,15.0,70,0.00,,,0.00,Wunderground v.1.15,2013-05-30 19:16:00,
2013-05-30 14:18:00,80.9,71.0,29.75,SSE,163,12.0,15.0,72,0.00,,,0.00,Wunderground v.1.15,2013-05-30 19:18:00,
2013-05-30 14:20:00,80.7,70.8,29.75,South,176,12.0,12.0,72,0.00,,,0.00,Wunderground v.1.15,2013-05-30 19:20:00,
2013-05-30 14:22:00,80.6,70.7,29.75,South,170,11.0,12.0,72,0.00,,,0.00,Wunderground v.1.15,2013-05-30 19:22:00,
2013-05-30 14:26:00,80.2,71.2,29.75,South,169,9.0,12.0,74,0.00,,,0.00,Wunderground v.1.15,2013-05-30 19:26:00,
2013-05-30 14:29:00,79.4,71.2,29.75,South,185,10.0,23.0,76,0.86,,,0.02,Wunderground v.1.15,2013-05-30 19:29:00,
2013-05-30 14:32:00,77.9,70.9,29.75,SSE,166,14.0,25.0,79,0.90,,,0.05,Wunderground v.1.15,2013-05-30 19:32:00,
2013-05-30 14:34:00,76.6,70.3,29.76,SE,131,16.0,25.0,81,0.69,,,0.08,Wunderground v.1.15,2013-05-30 19:34:00,
2013-05-30 14:40:00,72.8,66.3,29.75,SSE,155,18.0,18.0,80,0.22,,,0.12,Wunderground v.1.15,2013-05-30 19:40:00,
2013-05-30 14:42:00,72.1,64.5,29.74,ESE,109,19.0,38.0,77,0.34,,,0.14,Wunderground v.1.15,2013-05-30 19:42:00,
2013-05-30 14:46:00,72.8,66.3,29.75,ESE,110,21.0,38.0,80,0.20,,,0.15,Wunderground v.1.15,2013-05-30 19:46:00,
2013-05-30 14:49:00,73.2,67.7,29.74,SE,142,19.0,38.0,83,0.11,,,0.15,Wunderground v.1.15,2013-05-30 19:49:00,
2013-05-30 14:50:00,74.1,69.3,29.74,ESE,115,16.0,16.0,85,0.09,,,0.15,Wunderground v.1.15,2013-05-30 19:50:00,
2013-05-30 14:52:00,75.2,70.0,29.74,SE,143,13.0,16.0,84,0.07,,,0.15,Wunderground v.1.15,2013-05-30 19:52:00,
2013-05-30 14:54:00,76.2,70.7,29.74,SE,137,11.0,16.0,83,0.06,,,0.15,Wunderground v.1.15,2013-05-30 19:54:00,
2013-05-30 14:56:00,77.1,70.8,29.74,SSE,155,10.0,16.0,81,0.05,,,0.15,Wunderground v.1.15,2013-05-30 19:56:00,
2013-05-30 15:00:00,78.4,71.7,29.73,SSE,163,10.0,10.0,80,0.04,,,0.15,Wunderground v.1.15,2013-05-30 20:00:00,
2013-05-30 15:02:00,78.7,72.0,29.73,SE,145,10.0,10.0,80,0.00,,,0.15,Wunderground v.1.15,2013-05-30 20:02:00,
2013-05-30 15:04:00,79.0,71.6,29.73,SE,141,10.0,10.0,78,0.00,,,0.15,Wunderground v.1.15,2013-05-30 20:04:00,
2013-05-30 15:06:00,79.4,71.6,29.73,ESE,121,10.0,10.0,77,0.00,,,0.15,Wunderground v.1.15,2013-05-30 20:06:00,
2013-05-30 15:09:00,79.9,72.4,29.72,SSE,150,10.0,10.0,78,0.00,,,0.15,Wunderground v.1.15,2013-05-30 20:09:00,
2013-05-30 15:12:00,80.5,73.0,29.72,South,173,10.0,11.0,78,0.00,,,0.15,Wunderground v.1.15,2013-05-30 20:12:00,
2013-05-30 15:14:00,80.9,72.6,29.72,SE,143,10.0,12.0,76,0.00,,,0.15,Wunderground v.1.15,2013-05-30 20:14:00,
2013-05-30 15:16:00,81.4,71.9,29.72,South,184,10.0,20.0,73,0.00,,,0.16,Wunderground v.1.15,2013-05-30 20:16:00,
2013-05-30 15:18:00,82.1,72.6,29.72,SSE,150,11.0,20.0,73,0.00,,,0.16,Wunderground v.1.15,2013-05-30 20:18:00,
2013-05-30 15:20:00,82.4,72.0,29.72,SSE,153,12.0,12.0,71,0.00,,,0.16,Wunderground v.1.15,2013-05-30 20:20:00,
2013-05-30 15:22:00,82.7,73.2,29.72,South,188,12.0,16.0,73,0.00,,,0.16,Wunderground v.1.15,2013-05-30 20:22:00,
2013-05-30 15:24:00,83.0,72.6,29.72,SSW,201,12.0,16.0,71,0.00,,,0.16,Wunderground v.1.15,2013-05-30 20:24:00,
2013-05-30 15:29:00,83.4,72.2,29.72,South,184,15.0,27.0,69,0.00,,,0.16,Wunderground v.1.15,2013-05-30 20:29:00,
2013-05-30 15:30:00,83.5,72.3,29.72,South,186,15.0,21.0,69,0.00,,,0.16,Wunderground v.1.15,2013-05-30 20:30:00,
2013-05-30 15:34:00,83.7,71.6,29.71,SSE,162,15.0,21.0,67,0.00,,,0.16,Wunderground v.1.15,2013-05-30 20:34:00,
2013-05-30 15:36:00,83.8,72.5,29.71,East,96,14.0,21.0,69,0.00,,,0.16,Wunderground v.1.15,2013-05-30 20:36:00,
2013-05-30 15:39:00,83.8,71.2,29.71,SSW,203,14.0,21.0,66,0.00,,,0.16,Wunderground v.1.15,2013-05-30 20:39:00,
2013-05-30 15:40:00,83.9,71.8,29.71,SSE,154,14.0,14.0,67,0.00,,,0.16,Wunderground v.1.15,2013-05-30 20:40:00,
2013-05-30 15:42:00,83.8,71.7,29.70,SSE,156,14.0,14.0,67,0.00,,,0.16,Wunderground v.1.15,2013-05-30 20:42:00,
2013-05-30 15:44:00,83.6,71.0,29.70,ESE,114,15.0,15.0,66,0.00,,,0.16,Wunderground v.1.15,2013-05-30 20:44:00,
2013-05-30 15:49:00,82.9,70.8,29.70,SSW,194,15.0,18.0,67,0.00,,,0.16,Wunderground v.1.15,2013-05-30 20:49:00,
2013-05-30 15:50:00,82.7,70.2,29.70,SSW,195,16.0,20.0,66,0.00,,,0.16,Wunderground v.1.15,2013-05-30 20:50:00,
2013-05-30 16:00:00,81.9,70.3,29.70,SSE,163,17.0,17.0,68,0.00,,,0.16,Wunderground v.1.15,2013-05-30 21:00:00,
2013-05-30 16:02:00,82.0,70.8,29.70,South,170,15.0,22.0,69,0.00,,,0.16,Wunderground v.1.15,2013-05-30 21:02:00,
2013-05-30 16:06:00,82.7,72.3,29.70,SSW,198,15.0,22.0,71,0.00,,,0.16,Wunderground v.1.15,2013-05-30 21:06:00,
2013-05-30 16:12:00,83.3,72.1,29.70,SSE,158,17.0,24.0,69,0.00,,,0.16,Wunderground v.1.15,2013-05-30 21:12:00,
2013-05-30 16:14:00,83.4,72.6,29.70,South,170,16.0,24.0,70,0.00,,,0.16,Wunderground v.1.15,2013-05-30 21:14:00,
2013-05-30 16:16:00,83.4,70.4,29.70,SSE,165,15.0,24.0,65,0.00,,,0.16,Wunderground v.1.15,2013-05-30 21:16:00,
2013-05-30 16:19:00,83.2,70.7,29.70,South,179,16.0,24.0,66,0.00,,,0.16,Wunderground v.1.15,2013-05-30 21:19:00,
2013-05-30 16:20:00,83.1,71.0,29.70,SE,131,16.0,16.0,67,0.00,,,0.16,Wunderground v.1.15,2013-05-30 21:20:00,
2013-05-30 16:22:00,83.0,71.3,29.70,South,172,15.0,16.0,68,0.00,,,0.16,Wunderground v.1.15,2013-05-30 21:22:00,
2013-05-30 16:24:00,82.7,71.1,29.70,SSE,167,16.0,16.0,68,0.00,,,0.16,Wunderground v.1.15,2013-05-30 21:24:00,
2013-05-30 16:26:00,82.5,70.9,29.70,South,173,16.0,31.0,68,0.00,,,0.16,Wunderground v.1.15,2013-05-30 21:26:00,
2013-05-30 16:30:00,82.1,70.9,29.70,SSE,153,15.0,15.0,69,0.00,,,0.16,Wunderground v.1.15,2013-05-30 21:30:00,
2013-05-30 16:34:00,81.8,71.1,29.69,ESE,122,13.0,15.0,70,0.00,,,0.16,Wunderground v.1.15,2013-05-30 21:34:00,
2013-05-30 16:36:00,81.6,70.4,29.69,South,170,13.0,15.0,69,0.00,,,0.16,Wunderground v.1.15,2013-05-30 21:36:00,
2013-05-30 16:39:00,81.4,69.8,29.69,NNE,13,12.0,15.0,68,0.00,,,0.16,Wunderground v.1.15,2013-05-30 21:39:00,
2013-05-30 16:42:00,81.1,71.2,29.70,SSE,158,13.0,14.0,72,0.00,,,0.16,Wunderground v.1.15,2013-05-30 21:42:00,
2013-05-30 16:44:00,80.9,71.0,29.70,South,169,12.0,15.0,72,0.00,,,0.16,Wunderground v.1.15,2013-05-30 21:44:00,
2013-05-30 16:46:00,80.7,71.2,29.70,SSE,148,11.0,15.0,73,0.00,,,0.16,Wunderground v.1.15,2013-05-30 21:46:00,
2013-05-30 16:48:00,80.5,71.4,29.70,South,191,11.0,16.0,74,0.00,,,0.16,Wunderground v.1.15,2013-05-30 21:48:00,
2013-05-30 16:50:00,80.4,70.9,29.70,SSE,147,10.0,10.0,73,0.00,,,0.16,Wunderground v.1.15,2013-05-30 21:50:00,
2013-05-30 16:54:00,80.2,71.2,29.71,SE,142,10.0,10.0,74,0.00,,,0.16,Wunderground v.1.15,2013-05-30 21:54:00,
2013-05-30 16:56:00,80.2,71.2,29.71,East,81,11.0,18.0,74,0.00,,,0.16,Wunderground v.1.15,2013-05-30 21:56:00,
2013-05-30 16:59:00,80.3,71.3,29.71,South,190,11.0,18.0,74,0.00,,,0.16,Wunderground v.1.15,2013-05-30 21:59:00,
2013-05-30 17:00:00,80.2,70.8,29.71,SE,127,12.0,18.0,73,0.00,,,0.16,Wunderground v.1.15,2013-05-30 22:00:00,
2013-05-30 17:04:00,80.1,70.7,29.71,SSE,150,13.0,18.0,73,0.00,,,0.16,Wunderground v.1.15,2013-05-30 22:04:00,
2013-05-30 17:06:00,80.1,70.3,29.71,East,94,13.0,18.0,72,0.00,,,0.16,Wunderground v.1.15,2013-05-30 22:06:00,
2013-05-30 17:08:00,80.0,70.2,29.70,East,96,13.0,18.0,72,0.00,,,0.16,Wunderground v.1.15,2013-05-30 22:08:00,
2013-05-30 17:10:00,80.1,70.7,29.70,SE,143,13.0,13.0,73,0.00,,,0.16,Wunderground v.1.15,2013-05-30 22:10:00,
2013-05-30 17:12:00,80.4,71.3,29.70,SSE,167,12.0,17.0,74,0.00,,,0.16,Wunderground v.1.15,2013-05-30 22:12:00,
2013-05-30 17:14:00,80.7,71.6,29.70,SSE,149,12.0,17.0,74,0.00,,,0.16,Wunderground v.1.15,2013-05-30 22:14:00,
2013-05-30 17:16:00,80.8,70.9,29.70,SE,136,12.0,17.0,72,0.00,,,0.16,Wunderground v.1.15,2013-05-30 22:16:00,
2013-05-30 17:19:00,80.8,71.3,29.70,South,173,12.0,17.0,73,0.00,,,0.16,Wunderground v.1.15,2013-05-30 22:19:00,
2013-05-30 17:22:00,80.7,71.2,29.70,SSE,150,13.0,25.0,73,0.00,,,0.16,Wunderground v.1.15,2013-05-30 22:22:00,
2013-05-30 17:24:00,80.5,70.6,29.70,East,87,14.0,25.0,72,0.00,,,0.16,Wunderground v.1.15,2013-05-30 22:24:00,
2013-05-30 17:26:00,80.5,71.4,29.70,SSE,159,13.0,25.0,74,0.00,,,0.16,Wunderground v.1.15,2013-05-30 22:26:00,
2013-05-30 17:32:00,80.9,71.4,29.70,SE,124,12.0,16.0,73,0.00,,,0.16,Wunderground v.1.15,2013-05-30 22:32:00,
2013-05-30 17:36:00,80.8,70.5,29.69,SSE,147,13.0,17.0,71,0.00,,,0.16,Wunderground v.1.15,2013-05-30 22:36:00,
2013-05-30 17:40:00,80.7,70.8,29.69,SE,142,13.0,13.0,72,0.00,,,0.16,Wunderground v.1.15,2013-05-30 22:40:00,
2013-05-30 17:42:00,80.8,70.9,29.69,SE,143,12.0,13.0,72,0.00,,,0.16,Wunderground v.1.15,2013-05-30 22:42:00,
2013-05-30 17:49:00,80.6,70.3,29.68,South,186,12.0,16.0,71,0.00,,,0.16,Wunderground v.1.15,2013-05-30 22:49:00,
2013-05-30 17:50:00,80.7,70.4,29.68,SSW,193,12.0,13.0,71,0.00,,,0.16,Wunderground v.1.15,2013-05-30 22:50:00,
2013-05-30 17:52:00,80.7,70.8,29.67,SE,136,12.0,15.0,72,0.00,,,0.16,Wunderground v.1.15,2013-05-30 22:52:00,
2013-05-30 17:59:00,80.5,71.0,29.67,SE,136,12.0,15.0,73,0.00,,,0.16,Wunderground v.1.15,2013-05-30 22:59:00,
2013-05-30 18:00:00,80.4,70.5,29.67,SE,139,12.0,12.0,72,0.00,,,0.16,Wunderground v.1.15,2013-05-30 23:00:00,
2013-05-30 18:04:00,80.0,70.6,29.68,SSE,155,12.0,15.0,73,0.00,,,0.16,Wunderground v.1.15,2013-05-30 23:04:00,
2013-05-30 18:09:00,79.6,70.6,29.68,ESE,113,13.0,15.0,74,0.00,,,0.16,Wunderground v.1.15,2013-05-30 23:09:00,
2013-05-30 18:10:00,79.6,70.2,29.68,ESE,115,13.0,13.0,73,0.00,,,0.16,Wunderground v.1.15,2013-05-30 23:10:00,
2013-05-30 18:12:00,79.4,70.8,29.68,SE,136,12.0,13.0,75,0.00,,,0.16,Wunderground v.1.15,2013-05-30 23:12:00,
2013-05-30 18:16:00,79.1,70.5,29.70,SW,235,12.0,35.0,75,0.00,,,0.16,Wunderground v.1.15,2013-05-30 23:16:00,
2013-05-30 18:19:00,74.4,63.1,29.74,SSW,211,17.0,35.0,68,0.00,,,0.16,Wunderground v.1.15,2013-05-30 23:19:00,
2013-05-30 18:20:00,72.9,63.3,29.74,SW,221,20.0,37.0,72,0.00,,,0.17,Wunderground v.1.15,2013-05-30 23:20:00,
2013-05-30 18:22:00,71.2,62.9,29.74,SW,218,24.0,37.0,75,0.00,,,0.17,Wunderground v.1.15,2013-05-30 23:22:00,
2013-05-30 18:29:00,67.8,63.1,29.74,SW,225,25.0,37.0,85,0.07,,,0.18,Wunderground v.1.15,2013-05-30 23:29:00,
2013-05-30 18:30:00,67.2,63.2,29.74,SSW,200,22.0,22.0,87,0.28,,,0.19,Wunderground v.1.15,2013-05-30 23:30:00,
2013-05-30 18:32:00,66.7,63.0,29.74,SSW,210,20.0,22.0,88,0.41,,,0.20,Wunderground v.1.15,2013-05-30 23:32:00,
2013-05-30 18:39:00,65.4,62.7,29.74,SW,214,15.0,22.0,91,0.26,,,0.26,Wunderground v.1.15,2013-05-30 23:39:00,
2013-05-30 18:40:00,65.4,62.7,29.75,SSW,212,15.0,15.0,91,0.24,,,0.26,Wunderground v.1.15,2013-05-30 23:40:00,
2013-05-30 18:42:00,65.4,62.4,29.75,WSW,243,15.0,15.0,90,0.13,,,0.26,Wunderground v.1.15,2013-05-30 23:42:00,
2013-05-30 18:44:00,65.4,62.7,29.75,SW,221,15.0,15.0,91,0.11,,,0.27,Wunderground v.1.15,2013-05-30 23:44:00,
2013-05-30 18:46:00,65.3,62.9,29.75,WSW,250,14.0,15.0,92,0.11,,,0.27,Wunderground v.1.15,2013-05-30 23:46:00,
2013-05-30 18:49:00,65.1,62.7,29.76,SSW,204,13.0,15.0,92,0.12,,,0.28,Wunderground v.1.15,2013-05-30 23:49:00,
2013-05-30 18:50:00,65.1,62.7,29.77,SW,235,14.0,14.0,92,0.12,,,0.28,Wunderground v.1.15,2013-05-30 23:50:00,
2013-05-30 18:54:00,65.0,62.9,29.77,SSE,165,12.0,14.0,93,0.16,,,0.29,Wunderground v.1.15,2013-05-30 23:54:00,
2013-05-30 18:56:00,64.9,62.8,29.77,SSW,197,11.0,14.0,93,0.11,,,0.29,Wunderground v.1.15,2013-05-30 23:56:00,
2013-05-30 18:59:00,64.9,62.5,29.77,SW,225,11.0,16.0,92,0.07,,,0.29,Wunderground v.1.15,2013-05-30 23:59:00,
2013-05-30 19:02:00,64.9,62.2,29.77,SSW,208,12.0,18.0,91,0.05,,,0.29,Wunderground v.1.15,2013-05-31 00:02:00,
2013-05-30 19:04:00,64.9,62.5,29.77,WSW,250,13.0,18.0,92,0.05,,,0.30,Wunderground v.1.15,2013-05-31 00:04:00,
2013-05-30 19:09:00,64.7,62.0,29.77,SSW,208,12.0,18.0,91,0.05,,,0.30,Wunderground v.1.15,2013-05-31 00:09:00,
2013-05-30 19:10:00,64.7,62.3,29.77,WSW,238,11.0,11.0,92,0.05,,,0.30,Wunderground v.1.15,2013-05-31 00:10:00,
2013-05-30 19:14:00,64.6,62.2,29.76,SW,215,10.0,11.0,92,0.05,,,0.30,Wunderground v.1.15,2013-05-31 00:14:00,
2013-05-30 19:16:00,64.6,62.2,29.76,SW,215,9.0,11.0,92,0.04,,,0.30,Wunderground v.1.15,2013-05-31 00:16:00,
2013-05-30 19:19:00,64.5,62.1,29.76,SW,224,8.0,11.0,92,0.04,,,0.30,Wunderground v.1.15,2013-05-31 00:19:00,
2013-05-30 19:20:00,64.5,62.4,29.76,SSW,211,7.0,9.0,93,0.00,,,0.30,Wunderground v.1.15,2013-05-31 00:20:00,
2013-05-30 19:24:00,64.4,62.0,29.77,SSW,207,6.0,9.0,92,0.00,,,0.31,Wunderground v.1.15,2013-05-31 00:24:00,
2013-05-30 19:26:00,64.4,62.3,29.77,West,266,6.0,9.0,93,0.00,,,0.31,Wunderground v.1.15,2013-05-31 00:26:00,
2013-05-30 19:29:00,64.3,62.2,29.77,SW,236,6.0,9.0,93,0.00,,,0.31,Wunderground v.1.15,2013-05-31 00:29:00,
2013-05-30 19:30:00,64.3,62.2,29.76,SW,214,6.0,7.0,93,0.00,,,0.31,Wunderground v.1.15,2013-05-31 00:30:00,
2013-05-30 19:34:00,64.1,62.0,29.76,SSW,198,6.0,7.0,93,0.00,,,0.31,Wunderground v.1.15,2013-05-31 00:34:00,
2013-05-30 19:36:00,64.1,62.0,29.77,South,181,6.0,8.0,93,0.00,,,0.31,Wunderground v.1.15,2013-05-31 00:36:00,
2013-05-30 19:39:00,64.1,62.0,29.77,South,177,6.0,8.0,93,0.00,,,0.31,Wunderground v.1.15,2013-05-31 00:39:00,
2013-05-30 19:42:00,64.1,62.0,29.78,SSE,156,7.0,7.0,93,0.00,,,0.32,Wunderground v.1.15,2013-05-31 00:42:00,
2013-05-30 19:44:00,64.1,62.0,29.78,South,179,6.0,7.0,93,0.00,,,0.32,Wunderground v.1.15,2013-05-31 00:44:00,
2013-05-30 19:46:00,64.1,62.0,29.78,SW,225,6.0,7.0,93,0.00,,,0.32,Wunderground v.1.15,2013-05-31 00:46:00,
2013-05-30 19:49:00,64.1,62.0,29.79,SE,134,5.0,7.0,93,0.00,,,0.32,Wunderground v.1.15,2013-05-31 00:49:00,
2013-05-30 19:50:00,64.1,62.0,29.79,South,170,4.0,7.0,93,0.00,,,0.32,Wunderground v.1.15,2013-05-31 00:50:00,
2013-05-30 19:52:00,64.0,61.9,29.80,SE,146,3.0,7.0,93,0.00,,,0.32,Wunderground v.1.15,2013-05-31 00:52:00,
2013-05-30 19:54:00,64.0,61.9,29.79,ESE,111,3.0,7.0,93,0.00,,,0.32,Wunderground v.1.15,2013-05-31 00:54:00,
2013-05-30 20:00:00,64.1,62.3,29.79,ESE,107,4.0,7.0,94,0.04,,,0.33,Wunderground v.1.15,2013-05-31 01:00:00,
2013-05-30 20:02:00,64.1,62.0,29.80,East,98,4.0,7.0,93,0.04,,,0.33,Wunderground v.1.15,2013-05-31 01:02:00,
2013-05-30 20:04:00,64.0,61.9,29.80,SSE,167,3.0,7.0,93,0.09,,,0.34,Wunderground v.1.15,2013-05-31 01:04:00,
2013-05-30 20:08:00,64.0,61.9,29.80,South,190,4.0,8.0,93,0.19,,,0.35,Wunderground v.1.15,2013-05-31 01:08:00,
2013-05-30 20:10:00,64.0,61.9,29.80,SE,129,4.0,4.0,93,0.13,,,0.35,Wunderground v.1.15,2013-05-31 01:10:00,
2013-05-30 20:16:00,64.0,61.9,29.80,SE,134,5.0,7.0,93,0.21,,,0.38,Wunderground v.1.15,2013-05-31 01:16:00,
2013-05-30 20:19:00,63.9,61.5,29.79,SE,143,5.0,7.0,92,0.17,,,0.38,Wunderground v.1.15,2013-05-31 01:19:00,
2013-05-30 20:20:00,63.9,61.5,29.79,SW,214,6.0,7.0,92,0.15,,,0.39,Wunderground v.1.15,2013-05-31 01:20:00,
2013-05-30 20:22:00,64.0,61.6,29.79,SSE,166,6.0,7.0,92,0.22,,,0.40,Wunderground v.1.15,2013-05-31 01:22:00,
2013-05-30 20:24:00,64.0,61.6,29.78,SSW,212,6.0,7.0,92,0.22,,,0.40,Wunderground v.1.15,2013-05-31 01:24:00,
2013-05-30 20:26:00,63.9,61.5,29.78,SSE,163,6.0,7.0,92,0.20,,,0.41,Wunderground v.1.15,2013-05-31 01:26:00,
2013-05-30 20:30:00,63.9,61.5,29.78,South,188,5.0,8.0,92,0.25,,,0.43,Wunderground v.1.15,2013-05-31 01:30:00,
2013-05-30 20:32:00,63.9,61.8,29.78,South,179,5.0,8.0,93,0.25,,,0.43,Wunderground v.1.15,2013-05-31 01:32:00,
2013-05-30 20:34:00,63.8,61.7,29.78,SSW,200,5.0,8.0,93,0.14,,,0.43,Wunderground v.1.15,2013-05-31 01:34:00,
2013-05-30 20:39:00,63.8,61.7,29.78,SSE,167,5.0,8.0,93,0.11,,,0.44,Wunderground v.1.15,2013-05-31 01:39:00,
2013-05-30 20:40:00,63.7,61.6,29.78,South,183,5.0,5.0,93,0.11,,,0.44,Wunderground v.1.15,2013-05-31 01:40:00,
2013-05-30 20:44:00,63.7,61.6,29.78,SSW,201,4.0,7.0,93,0.07,,,0.44,Wunderground v.1.15,2013-05-31 01:44:00,
2013-05-30 20:46:00,63.7,61.6,29.78,SSW,207,4.0,7.0,93,0.05,,,0.44,Wunderground v.1.15,2013-05-31 01:46:00,
2013-05-30 20:50:00,63.8,61.7,29.78,SW,214,4.0,7.0,93,0.04,,,0.45,Wunderground v.1.15,2013-05-31 01:50:00,
2013-05-30 20:52:00,63.8,61.7,29.78,SE,134,5.0,7.0,93,0.04,,,0.45,Wunderground v.1.15,2013-05-31 01:52:00,
2013-05-30 20:54:00,63.9,61.8,29.78,SE,131,5.0,7.0,93,0.04,,,0.45,Wunderground v.1.15,2013-05-31 01:54:00,
2013-05-30 20:56:00,63.8,61.7,29.78,South,174,5.0,7.0,93,0.04,,,0.45,Wunderground v.1.15,2013-05-31 01:56:00,
2013-05-30 21:00:00,63.9,62.1,29.78,ESE,116,4.0,7.0,94,0.04,,,0.45,Wunderground v.1.15,2013-05-31 02:00:00,
2013-05-30 21:02:00,63.8,62.0,29.78,SSE,148,4.0,7.0,94,0.04,,,0.45,Wunderground v.1.15,2013-05-31 02:02:00,
2013-05-30 21:04:00,63.9,62.1,29.78,SE,127,4.0,7.0,94,0.04,,,0.45,Wunderground v.1.15,2013-05-31 02:04:00,
2013-05-30 21:06:00,63.9,62.1,29.78,ESE,122,5.0,7.0,94,0.04,,,0.45,Wunderground v.1.15,2013-05-31 02:06:00,
2013-05-30 21:09:00,63.9,62.1,29.78,SE,131,5.0,7.0,94,0.00,,,0.45,Wunderground v.1.15,2013-05-31 02:09:00,
2013-05-30 21:10:00,63.9,62.1,29.78,SE,143,6.0,7.0,94,0.00,,,0.45,Wunderground v.1.15,2013-05-31 02:10:00,
2013-05-30 21:12:00,64.0,62.2,29.78,East,100,6.0,8.0,94,0.00,,,0.45,Wunderground v.1.15,2013-05-31 02:12:00,
2013-05-30 21:14:00,64.0,62.2,29.78,SE,134,6.0,8.0,94,0.00,,,0.45,Wunderground v.1.15,2013-05-31 02:14:00,
2013-05-30 21:16:00,64.0,62.2,29.78,ESE,110,7.0,8.0,94,0.00,,,0.46,Wunderground v.1.15,2013-05-31 02:16:00,
2013-05-30 21:22:00,64.0,62.2,29.79,SE,125,8.0,12.0,94,0.00,,,0.46,Wunderground v.1.15,2013-05-31 02:22:00,
2013-05-30 21:26:00,64.0,62.2,29.79,ESE,122,8.0,12.0,94,0.06,,,0.46,Wunderground v.1.15,2013-05-31 02:26:00,
2013-05-30 21:28:00,64.0,62.2,29.79,SE,134,7.0,12.0,94,0.06,,,0.47,Wunderground v.1.15,2013-05-31 02:28:00,
2013-05-30 21:32:00,64.0,62.2,29.78,ESE,113,8.0,8.0,94,0.15,,,0.48,Wunderground v.1.15,2013-05-31 02:32:00,
2013-05-30 21:34:00,64.0,62.2,29.78,SSE,152,8.0,8.0,94,0.14,,,0.48,Wunderground v.1.15,2013-05-31 02:34:00,
2013-05-30 21:40:00,64.0,62.5,29.79,SE,129,8.0,10.0,95,0.17,,,0.50,Wunderground v.1.15,2013-05-31 02:40:00,
2013-05-30 21:42:00,64.0,62.5,29.79,ESE,121,7.0,10.0,95,0.13,,,0.50,Wunderground v.1.15,2013-05-31 02:42:00,
2013-05-30 21:44:00,64.0,62.5,29.80,ESE,108,7.0,10.0,95,0.10,,,0.51,Wunderground v.1.15,2013-05-31 02:44:00,
2013-05-30 21:49:00,64.1,62.6,29.80,SSW,211,5.0,10.0,95,0.46,,,0.54,Wunderground v.1.15,2013-05-31 02:49:00,
2013-05-30 21:50:00,64.1,62.6,29.80,SSE,165,5.0,10.0,95,0.65,,,0.56,Wunderground v.1.15,2013-05-31 02:50:00,
2013-05-30 21:52:00,64.1,62.6,29.79,SSE,148,5.0,10.0,95,0.97,,,0.59,Wunderground v.1.15,2013-05-31 02:52:00,
2013-05-30 21:56:00,64.0,62.5,29.80,South,174,6.0,10.0,95,0.32,,,0.64,Wunderground v.1.15,2013-05-31 02:56:00,
2013-05-30 21:59:00,64.0,62.5,29.80,ESE,120,6.0,10.0,95,0.23,,,0.65,Wunderground v.1.15,2013-05-31 02:59:00,
2013-05-30 22:02:00,64.0,62.8,29.80,SSE,160,6.0,8.0,96,0.26,,,0.66,Wunderground v.1.15,2013-05-31 03:02:00,
2013-05-30 22:04:00,64.0,62.8,29.80,SSE,163,6.0,12.0,96,0.24,,,0.67,Wunderground v.1.15,2013-05-31 03:04:00,
2013-05-30 22:09:00,64.0,62.8,29.80,WSW,238,8.0,14.0,96,0.21,,,0.68,Wunderground v.1.15,2013-05-31 03:09:00,
2013-05-30 22:10:00,64.0,62.8,29.81,SSE,157,8.0,8.0,96,0.20,,,0.69,Wunderground v.1.15,2013-05-31 03:10:00,
2013-05-30 22:12:00,64.0,62.8,29.81,ESE,105,8.0,8.0,96,0.19,,,0.69,Wunderground v.1.15,2013-05-31 03:12:00,
2013-05-30 22:14:00,64.0,62.8,29.80,SSE,160,7.0,8.0,96,0.13,,,0.70,Wunderground v.1.15,2013-05-31 03:14:00,
2013-05-30 22:16:00,64.0,62.8,29.81,SE,134,7.0,8.0,96,0.25,,,0.70,Wunderground v.1.15,2013-05-31 03:16:00,
2013-05-30 22:19:00,64.0,62.8,29.82,ESE,104,6.0,8.0,96,0.24,,,0.71,Wunderground v.1.15,2013-05-31 03:19:00,
2013-05-30 22:20:00,64.0,62.8,29.80,SE,127,6.0,8.0,96,2.10,,,0.75,Wunderground v.1.15,2013-05-31 03:20:00,
2013-05-30 22:22:00,64.0,62.8,29.82,ESE,102,7.0,9.0,96,0.37,,,0.77,Wunderground v.1.15,2013-05-31 03:22:00,
2013-05-30 22:24:00,63.9,62.7,29.82,South,177,7.0,9.0,96,0.37,,,0.79,Wunderground v.1.15,2013-05-31 03:24:00,
2013-05-30 22:30:00,63.9,63.0,29.80,SSE,154,8.0,8.0,97,0.35,,,0.82,Wunderground v.1.15,2013-05-31 03:30:00,
2013-05-30 22:32:00,63.8,62.9,29.80,SSE,165,8.0,8.0,97,0.26,,,0.83,Wunderground v.1.15,2013-05-31 03:32:00,
2013-05-30 22:34:00,63.8,62.9,29.80,SE,139,8.0,8.0,97,0.23,,,0.83,Wunderground v.1.15,2013-05-31 03:34:00,
2013-05-30 22:39:00,63.8,62.9,29.80,East,84,6.0,12.0,97,0.11,,,0.84,Wunderground v.1.15,2013-05-31 03:39:00,
2013-05-30 22:40:00,63.9,63.0,29.79,SE,129,6.0,7.0,97,0.11,,,0.84,Wunderground v.1.15,2013-05-31 03:40:00,
2013-05-30 22:44:00,63.9,63.0,29.78,SE,128,8.0,10.0,97,0.08,,,0.84,Wunderground v.1.15,2013-05-31 03:44:00,
2013-05-30 22:46:00,63.9,63.0,29.78,SE,131,9.0,12.0,97,0.06,,,0.84,Wunderground v.1.15,2013-05-31 03:46:00,
2013-05-30 22:49:00,63.9,62.7,29.77,ESE,120,10.0,12.0,96,0.05,,,0.84,Wunderground v.1.15,2013-05-31 03:49:00,
2013-05-30 22:50:00,63.9,62.7,29.77,ESE,121,10.0,12.0,96,0.05,,,0.84,Wunderground v.1.15,2013-05-31 03:50:00,
2013-05-30 22:52:00,63.9,62.7,29.77,ESE,121,10.0,12.0,96,0.04,,,0.84,Wunderground v.1.15,2013-05-31 03:52:00,
2013-05-30 22:54:00,63.9,62.7,29.77,ESE,120,10.0,12.0,96,0.00,,,0.84,Wunderground v.1.15,2013-05-31 03:54:00,
2013-05-30 22:59:00,63.9,62.7,29.77,SE,126,11.0,12.0,96,0.00,,,0.84,Wunderground v.1.15,2013-05-31 03:59:00,
2013-05-30 23:00:00,63.9,62.7,29.77,ESE,113,11.0,16.0,96,0.00,,,0.84,Wunderground v.1.15,2013-05-31 04:00:00,
2013-05-30 23:02:00,63.9,62.7,29.77,ESE,120,12.0,16.0,96,0.00,,,0.84,Wunderground v.1.15,2013-05-31 04:02:00,
2013-05-30 23:04:00,63.9,62.7,29.76,ESE,117,12.0,16.0,96,0.00,,,0.84,Wunderground v.1.15,2013-05-31 04:04:00,
2013-05-30 23:06:00,63.9,62.7,29.76,ESE,114,13.0,16.0,96,0.00,,,0.85,Wunderground v.1.15,2013-05-31 04:06:00,
2013-05-30 23:12:00,63.9,62.7,29.76,ESE,120,12.0,13.0,96,0.00,,,0.85,Wunderground v.1.15,2013-05-31 04:12:00,
2013-05-30 23:14:00,63.9,62.7,29.76,SE,128,12.0,13.0,96,0.00,,,0.85,Wunderground v.1.15,2013-05-31 04:14:00,
2013-05-30 23:16:00,63.9,62.7,29.76,SE,124,12.0,13.0,96,0.00,,,0.85,Wunderground v.1.15,2013-05-31 04:16:00,
2013-05-30 23:19:00,63.9,62.7,29.76,SE,124,12.0,13.0,96,0.00,,,0.85,Wunderground v.1.15,2013-05-31 04:19:00,
2013-05-30 23:20:00,63.9,62.7,29.76,ESE,115,12.0,12.0,96,0.00,,,0.85,Wunderground v.1.15,2013-05-31 04:20:00,
2013-05-30 23:22:00,63.9,62.7,29.77,ESE,122,12.0,12.0,96,0.00,,,0.85,Wunderground v.1.15,2013-05-31 04:22:00,
2013-05-30 23:24:00,63.9,62.7,29.77,ESE,123,12.0,12.0,96,0.00,,,0.85,Wunderground v.1.15,2013-05-31 04:24:00,
2013-05-30 23:29:00,64.0,62.8,29.77,SSE,160,10.0,12.0,96,0.00,,,0.85,Wunderground v.1.15,2013-05-31 04:29:00,
2013-05-30 23:30:00,64.0,62.8,29.77,ESE,117,9.0,9.0,96,0.00,,,0.85,Wunderground v.1.15,2013-05-31 04:30:00,
2013-05-30 23:32:00,64.0,62.8,29.77,SE,125,9.0,9.0,96,0.00,,,0.85,Wunderground v.1.15,2013-05-31 04:32:00,
2013-05-30 23:36:00,64.1,62.9,29.77,SE,127,9.0,12.0,96,0.00,,,0.85,Wunderground v.1.15,2013-05-31 04:36:00,
2013-05-30 23:39:00,64.2,63.0,29.77,SE,127,10.0,12.0,96,0.00,,,0.85,Wunderground v.1.15,2013-05-31 04:39:00,
2013-05-30 23:40:00,64.2,63.0,29.77,SE,127,11.0,14.0,96,0.00,,,0.85,Wunderground v.1.15,2013-05-31 04:40:00,
2013-05-30 23:42:00,64.2,62.7,29.77,SE,137,11.0,14.0,95,0.00,,,0.85,Wunderground v.1.15,2013-05-31 04:42:00,
2013-05-30 23:46:00,64.3,62.8,29.76,SE,124,12.0,14.0,95,0.00,,,0.85,Wunderground v.1.15,2013-05-31 04:46:00,
2013-05-30 23:49:00,64.3,62.8,29.77,SE,124,12.0,14.0,95,0.00,,,0.85,Wunderground v.1.15,2013-05-31 04:49:00,
2013-05-30 23:52:00,64.3,62.8,29.77,SE,128,13.0,14.0,95,0.00,,,0.85,Wunderground v.1.15,2013-05-31 04:52:00,
2013-05-30 23:54:00,64.3,62.8,29.77,SE,127,13.0,14.0,95,0.00,,,0.85,Wunderground v.1.15,2013-05-31 04:54:00,
2013-05-30 23:56:00,64.3,62.8,29.77,ESE,121,13.0,14.0,95,0.00,,,0.85,Wunderground v.1.15,2013-05-31 04:56:00,